GW3899 Weather Reports


time (UTC)temp
C
wind
direction
speed
KPH
gust
KPH
rain 1hr
cm
rain 24hr
cm
rain mn
cm
humidity
%
barometer
mb
20260510203356 17 204 4.8 8.0 0.00 0.00 0.00 1 1021.6
20260510202851 17 134 3.2 3.2 0.00 0.00 0.00 1 1021.8
20260510202347 17 130 3.2 3.2 0.00 0.00 0.00 1 1021.5
20260510201844 17 105 3.2 4.8 0.00 0.00 0.00 1 1021.5
20260510201341 17 70 8.0 8.0 0.00 0.00 0.00 1 1021.9
20260510200837 17 144 1.6 1.6 0.00 0.00 0.00 1 1021.7
20260510200336 17 35 4.8 4.8 0.00 0.00 0.00 1 1022.0
20260510195830 17 357 6.4 8.0 0.00 0.00 0.00 1 1022.0
20260510195327 17 8 4.8 4.8 0.00 0.00 0.00 1 1021.8
20260510194823 17 214 4.8 4.8 0.00 0.00 0.00 1 1022.0
20260510194319 17 196 6.4 8.0 0.00 0.00 0.00 1 1022.0
20260510193815 17 112 1.6 3.2 0.00 0.00 0.00 1 1021.7
20260510193310 17 126 4.8 9.7 0.00 0.00 0.00 1 1021.7
20260510192806 17 328 6.4 9.7 0.00 0.00 0.00 1 1021.7
20260510192301 17 357 8.0 9.7 0.00 0.00 0.00 1 1021.9
20260510191757 17 15 8.0 9.7 0.00 0.00 0.00 1 1021.9
20260510191253 17 9 8.0 11.3 0.00 0.00 0.00 1 1021.8
20260510190752 17 3 8.0 9.7 0.00 0.00 0.00 1 1021.8
20260510190248 17 3 12.9 16.1 0.00 0.00 0.00 1 1021.6
20260510185744 17 24 4.8 8.0 0.00 0.00 0.00 1 1021.7
20260510185244 17 31 11.3 14.5 0.00 0.00 0.00 1 1021.7
20260510184740 17 63 4.8 4.8 0.00 0.00 0.00 1 1021.3
20260510184237 17 77 3.2 3.2 0.00 0.00 0.00 1 1021.4
20260510183737 17 337 11.3 12.9 0.00 0.00 0.00 1 1021.5
20260510183232 17 135 3.2 3.2 0.00 0.00 0.00 1 1021.4
20260510182729 17 99 4.8 4.8 0.00 0.00 0.00 1 1021.4
20260510182224 17 123 3.2 8.0 0.00 0.00 0.00 1 1021.4
20260510181721 17 13 6.4 11.3 0.00 0.00 0.00 1 1021.2
20260510181218 17 104 6.4 9.7 0.00 0.00 0.00 1 1021.2
20260510180714 18 0 8.0 9.7 0.00 0.00 0.00 1 1021.2
20260510180212 18 97 4.8 4.8 0.00 0.00 0.00 1 1021.1
20260510175708 18 79 4.8 4.8 0.00 0.00 0.00 1 1021.2
20260510175204 18 83 4.8 4.8 0.00 0.00 0.00 1 1021.1
20260510174701 18 27 8.0 12.9 0.00 0.00 0.00 1 1021.3
20260510174159 17 71 14.5 17.7 0.00 0.00 0.00 1 1020.8
20260510173654 17 59 4.8 4.8 0.00 0.00 0.00 1 1021.1
20260510173150 17 353 11.3 16.1 0.00 0.00 0.00 1 1021.2
20260510172646 18 35 11.3 12.9 0.00 0.00 0.00 1 1021.0
20260510172142 18 18 14.5 16.1 0.00 0.00 0.00 1 1021.1
20260510171639 18 6 8.0 9.7 0.00 0.00 0.00 1 1021.0
20260510171137 17 14 6.4 9.7 0.00 0.00 0.00 1 1021.1
20260510170633 18 71 12.9 20.9 0.00 0.00 0.00 1 1021.3
20260510170130 18 93 12.9 16.1 0.00 0.00 0.00 1 1021.3
20260510165625 18 139 6.4 11.3 0.00 0.00 0.00 1 1021.1
20260510165121 18 41 6.4 8.0 0.00 0.00 0.00 1 1021.2
20260510164619 18 23 17.7 20.9 0.00 0.00 0.00 1 1021.2
20260510164115 18 330 8.0 11.3 0.00 0.00 0.00 1 1020.9
20260510163610 18 110 4.8 8.0 0.00 0.00 0.00 1 1021.0
20260510163108 18 70 8.0 9.7 0.00 0.00 0.00 1 1021.0
20260510162602 18 137 4.8 4.8 0.00 0.00 0.00 1 1021.3
20260510162059 18 63 8.0 16.1 0.00 0.00 0.00 1 1021.2
20260510161554 17 29 9.7 14.5 0.00 0.00 0.00 1 1021.2
20260510161052 17 107 8.0 11.3 0.00 0.00 0.00 1 1021.1
20260510160549 17 113 4.8 4.8 0.00 0.00 0.00 1 1021.5
20260510160048 17 99 4.8 4.8 0.00 0.00 0.00 1 1021.1
20260510155545 17 358 8.0 9.7 0.00 0.00 0.00 1 1021.1
20260510155041 17 81 4.8 4.8 0.00 0.00 0.00 1 1021.4
20260510154537 17 359 8.0 9.7 0.00 0.00 0.00 1 1021.4
20260510154032 16 95 6.4 9.7 0.00 0.00 0.00 1 1021.3
20260510153527 16 45 8.0 11.3 0.00 0.00 0.00 1 1021.3
20260510153025 16 122 4.8 4.8 0.00 0.00 0.00 1 1021.4
20260510152521 16 319 8.0 11.3 0.00 0.00 0.00 1 1021.4
20260510152018 16 2 11.3 14.5 0.00 0.00 0.00 1 1021.5
20260510151514 16 62 8.0 9.7 0.00 0.00 0.00 1 1021.2
20260510151012 16 337 4.8 9.7 0.00 0.00 0.00 1 1021.0
20260510150507 16 27 8.0 9.7 0.00 0.00 0.00 1 1021.0
20260510150003 17 116 8.0 11.3 0.00 0.00 0.00 1 1021.1
20260510145500 17 24 8.0 11.3 0.00 0.00 0.00 1 1020.9
20260510144956 16 29 9.7 11.3 0.00 0.00 0.00 1 1020.7
20260510144454 16 302 6.4 9.7 0.00 0.00 0.00 1 1020.9
20260510143949 16 134 1.6 3.2 0.00 0.00 0.00 1 1020.8
20260510143445 15 117 8.0 11.3 0.00 0.00 0.00 1 1020.6
20260510142942 15 104 6.4 9.7 0.00 0.00 0.00 1 1020.5
20260510142438 16 79 6.4 9.7 0.00 0.00 0.00 1 1020.4
20260510141934 16 68 8.0 12.9 0.00 0.00 0.00 1 1020.5
20260510141432 15 72 4.8 4.8 0.00 0.00 0.00 1 1020.5
20260510140929 15 120 4.8 8.0 0.00 0.00 0.00 1 1020.7
20260510140425 15 55 8.0 9.7 0.00 0.00 0.00 1 1020.6
20260510135924 15 45 11.3 12.9 0.00 0.00 0.00 1 1020.0
20260510135421 15 100 4.8 8.0 0.00 0.00 0.00 1 1019.9
20260510134918 15 27 8.0 9.7 0.00 0.00 0.00 1 1019.9
20260510134410 15 349 9.7 11.3 0.00 0.00 0.00 1 1019.7
20260510133905 15 41 9.7 11.3 0.00 0.00 0.00 1 1019.6
20260510133402 14 46 4.8 8.0 0.00 0.00 0.00 1 1019.6
20260510132857 14 53 6.4 9.7 0.00 0.00 0.00 1 1019.7
20260510132356 13 8 4.8 8.0 0.00 0.00 0.00 1 1019.7
20260510131852 14 60 8.0 9.7 0.00 0.00 0.00 1 1019.3
20260510131350 13 44 8.0 9.7 0.00 0.00 0.00 1 1019.7
20260510130846 13 31 8.0 11.3 0.00 0.00 0.00 1 1019.5
20260510130343 13 134 4.8 4.8 0.00 0.00 0.00 1 1019.5
20260510125840 13 88 4.8 8.0 0.00 0.00 0.00 1 1019.2
20260510125336 13 118 4.8 4.8 0.00 0.00 0.00 1 1019.5
20260510124834 13 7 8.0 9.7 0.00 0.00 0.00 1 1019.5
20260510124329 13 75 6.4 8.0 0.00 0.00 0.00 1 1019.2
20260510123820 12 347 6.4 9.7 0.00 0.00 0.00 1 1019.5
20260510123315 12 103 4.8 4.8 0.00 0.00 0.00 1 1019.3
20260510122812 12 346 11.3 14.5 0.00 0.00 0.00 1 1019.2
20260510122308 12 98 3.2 3.2 0.00 0.00 0.00 1 1019.1
20260510121804 12 91 6.4 9.7 0.00 0.00 0.00 1 1018.9
20260510121302 12 94 3.2 3.2 0.00 0.00 0.00 1 1019.0
20260510120759 12 59 6.4 9.7 0.00 0.00 0.00 1 1018.7
20260510120255 12 42 8.0 9.7 0.00 0.00 0.00 1 1018.7
20260510115751 12 25 3.2 4.8 0.00 0.00 0.00 1 1018.4
20260510115249 12 111 3.2 3.2 0.00 0.00 0.00 1 1018.4
20260510114744 12 119 3.2 4.8 0.00 0.00 0.00 1 1018.6
20260510114242 12 184 1.6 3.2 0.00 0.00 0.00 1 1018.5
20260510113737 12 0 3.2 4.8 0.00 0.00 0.00 1 1018.6
20260510113234 12 57 4.8 4.8 0.00 0.00 0.00 1 1018.5
20260510112730 13 133 3.2 3.2 0.00 0.00 0.00 1 1018.3
20260510112228 13 338 4.8 9.7 0.00 0.00 0.00 1 1018.2
20260510111723 13 49 4.8 4.8 0.00 0.00 0.00 1 1018.0
20260510111220 13 117 4.8 4.8 0.00 0.00 0.00 1 1018.1
20260510110720 13 32 6.4 9.7 0.00 0.00 0.00 1 1017.9
20260510110218 13 72 3.2 3.2 0.00 0.00 0.00 1 1017.9
20260510105717 13 349 6.4 9.7 0.00 0.00 0.00 1 1017.8
20260510105217 13 30 8.0 11.3 0.00 0.00 0.00 1 1017.5
20260510104714 13 21 8.0 9.7 0.00 0.00 0.00 1 1017.6
20260510104212 13 139 3.2 3.2 0.00 0.00 0.00 1 1017.2
20260510103708 13 50 8.0 11.3 0.00 0.00 0.00 1 1017.0
20260510103205 14 81 8.0 9.7 0.00 0.00 0.00 1 1016.7
20260510102700 14 118 3.2 3.2 0.00 0.00 0.00 1 1016.8
20260510102156 14 132 1.6 3.2 0.00 0.00 0.00 1 1016.7
20260510101654 14 16 8.0 11.3 0.00 0.00 0.00 1 1016.6
20260510101152 14 96 4.8 4.8 0.00 0.00 0.00 1 1016.6
20260510100647 14 57 4.8 4.8 0.00 0.00 0.00 1 1016.5
20260510100145 14 154 1.6 3.2 0.00 0.00 0.00 1 1016.7
20260510095640 14 119 1.6 1.6 0.00 0.00 0.00 1 1016.4
20260510095136 14 144 1.6 3.2 0.00 0.00 0.00 1 1016.3
20260510094634 14 144 1.6 1.6 0.00 0.00 0.00 1 1016.5
20260510094131 14 126 1.6 3.2 0.00 0.00 0.00 1 1016.4
20260510093622 14 87 4.8 4.8 0.00 0.00 0.00 1 1016.6
20260510093119 14 140 0.0 0.0 0.00 0.00 0.00 1 1016.5
20260510092615 14 135 0.0 0.0 0.00 0.00 0.00 1 1016.5
20260510092116 14 144 0.0 1.6 0.00 0.00 0.00 1 1016.7
20260510091612 14 165 3.2 3.2 0.00 0.00 0.00 1 1016.4
20260510091108 14 172 3.2 3.2 0.00 0.00 0.00 1 1016.4
20260510090605 14 135 0.0 0.0 0.00 0.00 0.00 1 1015.8
20260510090101 14 136 0.0 0.0 0.00 0.00 0.00 1 1016.1
20260510085556 14 146 0.0 0.0 0.00 0.00 0.00 1 1016.2
20260510085052 14 160 0.0 0.0 0.00 0.00 0.00 1 1016.2
20260510084549 15 147 0.0 0.0 0.00 0.00 0.00 1 1015.8
20260510084046 15 141 0.0 0.0 0.00 0.00 0.00 1 1015.6
20260510083542 15 104 3.2 3.2 0.00 0.00 0.00 1 1015.8
20260510083038 15 124 1.6 3.2 0.00 0.00 0.00 1 1015.6
20260510082535 15 144 1.6 1.6 0.00 0.00 0.00 1 1015.6
20260510082031 15 76 4.8 4.8 0.00 0.00 0.00 1 1015.6
20260510081526 15 100 3.2 3.2 0.00 0.00 0.00 1 1015.4
20260510081022 15 130 1.6 1.6 0.00 0.00 0.00 1 1015.2
20260510080521 15 145 0.0 1.6 0.00 0.00 0.00 1 1015.3
20260510080018 15 180 4.8 4.8 0.00 0.00 0.00 1 1015.2
20260510075515 15 123 4.8 4.8 0.00 0.00 0.00 1 1014.9
20260510075012 15 128 1.6 1.6 0.00 0.00 0.00 1 1014.8
20260510074510 15 132 1.6 1.6 0.00 0.00 0.00 1 1014.9
20260510074005 15 142 0.0 0.0 0.00 0.00 0.00 1 1015.0
20260510073501 15 140 0.0 0.0 0.00 0.00 0.00 1 1014.8
20260510072958 15 122 1.6 1.6 0.00 0.00 0.00 1 1014.9
20260510072455 15 121 1.6 1.6 0.00 0.00 0.00 1 1014.8
20260510071950 15 125 1.6 3.2 0.00 0.00 0.00 1 1014.8
20260510071447 15 101 3.2 3.2 0.00 0.00 0.00 1 1014.8
20260510070945 15 143 0.0 0.0 0.00 0.00 0.00 1 1015.0
20260510070442 15 147 0.0 0.0 0.00 0.00 0.00 1 1015.0
20260510065938 15 108 1.6 1.6 0.00 0.00 0.00 1 1014.9
20260510065435 15 125 0.0 0.0 0.00 0.00 0.00 1 1015.0
20260510064931 15 141 0.0 0.0 0.00 0.00 0.00 1 1015.0
20260510064428 16 139 0.0 0.0 0.00 0.00 0.00 1 1015.1
20260510063925 16 114 3.2 3.2 0.00 0.00 0.00 1 1015.1
20260510063421 16 125 1.6 1.6 0.00 0.00 0.00 1 1015.2
20260510062919 16 146 3.2 4.8 0.00 0.00 0.00 1 1015.5
20260510062414 16 133 3.2 3.2 0.00 0.00 0.00 1 1015.0
20260510061910 16 104 3.2 3.2 0.00 0.00 0.00 1 1014.9
20260510061407 16 121 1.6 3.2 0.00 0.00 0.00 1 1014.7
20260510060902 16 154 0.0 0.0 0.00 0.00 0.00 1 1014.7
20260510060359 16 145 0.0 0.0 0.00 0.00 0.00 1 1014.5
20260510055856 16 146 0.0 0.0 0.00 0.00 0.00 1 1014.4
20260510055355 16 119 1.6 1.6 0.00 0.00 0.00 1 1014.5
20260510054848 16 139 1.6 1.6 0.00 0.00 0.00 1 1014.2
20260510054344 16 132 1.6 1.6 0.00 0.00 0.00 1 1014.4
20260510053839 16 101 3.2 3.2 0.00 0.00 0.00 1 1014.4
20260510053334 16 122 1.6 1.6 0.00 0.00 0.00 1 1014.1
20260510052831 16 142 0.0 0.0 0.00 0.00 0.00 1 1014.3
20260510052321 16 148 0.0 0.0 0.00 0.00 0.00 1 1014.0
20260510051818 17 159 0.0 0.0 0.00 0.00 0.00 1 1014.0
20260510051315 17 141 0.0 0.0 0.00 0.00 0.00 1 1013.8
20260510050811 17 140 0.0 0.0 0.00 0.00 0.00 1 1013.7
20260510050303 17 147 0.0 0.0 0.00 0.00 0.00 1 1013.9
20260510045800 17 148 0.0 0.0 0.00 0.00 0.00 1 1013.8
20260510045256 17 147 0.0 0.0 0.00 0.00 0.00 1 1013.6
20260510044754 17 141 0.0 0.0 0.00 0.00 0.00 1 1013.6
20260510044250 17 140 0.0 0.0 0.00 0.00 0.00 1 1013.4
20260510043746 17 141 1.6 1.6 0.00 0.00 0.00 1 1013.2
20260510043242 17 141 0.0 0.0 0.00 0.00 0.00 1 1013.2
20260510042740 17 144 0.0 0.0 0.00 0.00 0.00 1 1013.4
20260510042235 18 135 0.0 1.6 0.00 0.00 0.00 1 1013.2
20260510041732 18 108 1.6 3.2 0.00 0.00 0.00 1 1013.1
20260510041230 18 137 0.0 1.6 0.00 0.00 0.00 1 1013.0
20260510040726 18 138 0.0 0.0 0.00 0.00 0.00 1 1013.2
20260510040223 18 144 0.0 0.0 0.00 0.00 0.00 1 1013.2
20260510035718 18 143 0.0 0.0 0.00 0.00 0.00 1 1013.0
20260510035209 18 144 0.0 0.0 0.00 0.00 0.00 1 1013.1
20260510034705 18 141 1.6 1.6 0.00 0.00 0.00 1 1013.2
20260510034202 18 138 0.0 1.6 0.00 0.00 0.00 1 1013.2
20260510033658 18 139 0.0 0.0 0.00 0.00 0.00 1 1013.0
20260510033157 18 145 0.0 0.0 0.00 0.00 0.00 1 1013.1
20260510032652 18 94 3.2 3.2 0.00 0.00 0.00 1 1013.2
20260510032148 19 140 0.0 0.0 0.00 0.00 0.00 1 1013.1
20260510031643 19 50 3.2 3.2 0.00 0.00 0.00 1 1013.2
20260510031140 19 118 1.6 1.6 0.00 0.00 0.00 1 1013.1
20260510030634 20 73 4.8 4.8 0.00 0.00 0.00 1 1013.0
20260510030132 20 22 6.4 9.7 0.00 0.00 0.00 1 1012.8
20260510025629 20 121 4.8 4.8 0.00 0.00 0.00 1 1012.5
20260510025126 20 104 9.7 12.9 0.00 0.00 0.00 1 1012.8
20260510024623 21 0 14.5 16.1 0.00 0.00 0.00 1 1012.4
20260510024119 21 52 11.3 12.9 0.00 0.00 0.00 1 1012.4
20260510023615 21 154 1.6 1.6 0.00 0.00 0.00 1 1011.2
20260510023113 21 153 1.6 1.6 0.00 0.00 0.00 1 1011.2
20260510022613 20 164 3.2 3.2 0.00 0.00 0.00 1 1011.2
20260510022108 20 150 1.6 3.2 0.00 0.00 0.00 1 1010.9
20260510021604 20 152 1.6 1.6 0.00 0.00 0.00 1 1010.9
20260510021102 20 154 1.6 1.6 0.00 0.00 0.00 1 1010.9
20260510020555 20 145 1.6 1.6 0.00 0.00 0.00 1 1010.8
20260510020051 21 163 1.6 1.6 0.00 0.00 0.00 1 1010.8
20260510015547 21 149 0.0 1.6 0.00 0.00 0.00 1 1010.8
20260510015044 21 149 1.6 1.6 0.00 0.00 0.00 1 1010.7
20260510014534 21 148 1.6 1.6 0.00 0.00 0.00 1 1010.5
20260510014032 21 147 1.6 1.6 0.00 0.00 0.00 1 1010.3
20260510013526 21 147 1.6 3.2 0.00 0.00 0.00 1 1010.5
20260510013022 21 146 1.6 1.6 0.00 0.00 0.00 1 1010.3
20260510012516 21 141 1.6 1.6 0.00 0.00 0.00 1 1010.2
20260510012013 22 147 1.6 1.6 0.00 0.00 0.00 1 1010.2
20260510011513 22 145 0.0 1.6 0.00 0.00 0.00 1 1010.0
20260510011008 22 155 0.0 0.0 0.00 0.00 0.00 1 1010.2
20260510010506 22 148 1.6 1.6 0.00 0.00 0.00 1 1010.1
20260510010003 23 148 0.0 1.6 0.00 0.00 0.00 1 1010.0
20260510005458 23 156 1.6 1.6 0.00 0.00 0.00 1 1010.2
20260510004956 23 159 1.6 3.2 0.00 0.00 0.00 1 1010.0
20260510004453 23 158 1.6 3.2 0.00 0.00 0.00 1 1010.1
20260510003952 23 166 3.2 3.2 0.00 0.00 0.00 1 1010.1
20260510003448 23 157 1.6 1.6 0.00 0.00 0.00 1 1010.1
20260510002943 24 146 1.6 3.2 0.00 0.00 0.00 1 1009.9
20260510002439 24 148 1.6 1.6 0.00 0.00 0.00 1 1009.9
20260510001936 25 166 3.2 3.2 0.00 0.00 0.00 1 1010.0
20260510001433 25 160 1.6 1.6 0.00 0.00 0.00 1 1009.8
20260510000931 25 165 1.6 1.6 0.00 0.00 0.00 1 1009.8
20260510000427 25 156 0.0 0.0 0.00 0.00 0.00 1 1009.8
20260509235923 25 159 1.6 1.6 0.00 0.00 0.00 1 1009.7
20260509235420 26 168 4.8 4.8 0.00 0.00 0.00 1 1009.7
20260509234916 26 184 3.2 4.8 0.00 0.00 0.00 1 1009.7
20260509234414 26 189 4.8 4.8 0.00 0.00 0.00 1 1009.8
20260509233912 26 170 4.8 4.8 0.00 0.00 0.00 1 1009.6
20260509233409 26 140 1.6 3.2 0.00 0.00 0.00 1 1009.9
20260509232904 26 161 4.8 4.8 0.00 0.00 0.00 1 1009.7
20260509232402 26 188 4.8 4.8 0.00 0.00 0.00 1 1009.7
20260509231857 26 147 1.6 3.2 0.00 0.00 0.00 1 1010.1
20260509231355 26 171 3.2 3.2 0.00 0.00 0.00 1 1009.8
20260509230852 26 164 8.0 8.0 0.00 0.00 0.00 1 1010.0
20260509230349 26 151 1.6 3.2 0.00 0.00 0.00 1 1009.7
20260509225844 26 169 4.8 8.0 0.00 0.00 0.00 1 1009.6
20260509225342 26 168 4.8 8.0 0.00 0.00 0.00 1 1009.8
20260509224838 26 154 4.8 4.8 0.00 0.00 0.00 1 1009.6
20260509224334 27 192 6.4 8.0 0.00 0.00 0.00 1 1009.9
20260509223831 27 157 4.8 4.8 0.00 0.00 0.00 1 1009.7
20260509223328 26 180 6.4 8.0 0.00 0.00 0.00 1 1009.2
20260509222825 26 193 14.5 16.1 0.00 0.00 0.00 1 1009.5
20260509222320 27 188 6.4 8.0 0.00 0.00 0.00 1 1009.5
20260509221816 27 173 8.0 9.7 0.00 0.00 0.00 1 1009.6
20260509221314 27 201 4.8 4.8 0.00 0.00 0.00 1 1009.6
20260509220813 27 230 8.0 12.9 0.00 0.00 0.00 1 1009.7
20260509220310 26 173 4.8 8.0 0.00 0.00 0.00 1 1009.6
20260509215806 27 213 9.7 12.9 0.00 0.00 0.00 1 1009.6
20260509215305 26 243 6.4 8.0 0.00 0.00 0.00 1 1009.8
20260509214759 27 265 11.3 12.9 0.00 0.00 0.00 1 1009.5
20260509214256 26 237 8.0 11.3 0.00 0.00 0.00 1 1009.8
20260509213753 27 296 4.8 9.7 0.00 0.00 0.00 1 1009.7
20260509213249 27 190 8.0 11.3 0.00 0.00 0.00 1 1009.6
20260509212746 27 229 6.4 8.0 0.00 0.00 0.00 1 1009.6
20260509212244 27 183 6.4 8.0 0.00 0.00 0.00 1 1009.8
20260509211739 26 298 8.0 11.3 0.00 0.00 0.00 1 1009.9
20260509211236 26 166 6.4 9.7 0.00 0.00 0.00 1 1010.0
20260509210732 27 256 8.0 11.3 0.00 0.00 0.00 1 1009.9
20260509210231 26 225 6.4 9.7 0.00 0.00 0.00 1 1010.1
20260509205724 26 294 8.0 12.9 0.00 0.00 0.00 1 1010.0
20260509205224 27 160 8.0 9.7 0.00 0.00 0.00 1 1010.1
20260509204720 26 163 3.2 4.8 0.00 0.00 0.00 1 1010.1
20260509204217 26 153 3.2 3.2 0.00 0.00 0.00 1 1010.1
20260509203712 26 197 3.2 4.8 0.00 0.00 0.00 1 1009.9